| time (UTC) | temp F | wind direction | speed MPH | gust MPH | rain 1hr in | rain 24hr in | rain mn in | humidity % | barometer mb |
| 20260902213057 | 47 | 0 | 0.0 | 0.0 | 0.00 | 0.23 | 0.23 | 96 | 1002.6 |
| 20260902212533 | 46 | 0 | 0.0 | 0.0 | 0.01 | 0.23 | 0.23 | 96 | 1002.7 |
| 20260902212032 | 46 | 0 | 0.0 | 0.0 | 0.03 | 0.23 | 0.23 | 96 | 1002.5 |
| 20260902211550 | 46 | 0 | 0.0 | 0.0 | 0.05 | 0.23 | 0.23 | 95 | 1002.4 |
| 20260902211030 | 46 | 0 | 0.0 | 0.0 | 0.06 | 0.23 | 0.23 | 95 | 1002.5 |
| 20260902210530 | 46 | 0 | 0.0 | 0.0 | 0.08 | 0.23 | 0.23 | 95 | 1002.4 |
| 20260902210048 | 47 | 0 | 0.0 | 0.0 | 0.09 | 0.23 | 0.23 | 95 | 1002.4 |
| 20260902205533 | 47 | 0 | 0.0 | 0.0 | 0.10 | 0.23 | 0.23 | 95 | 1002.4 |
| 20260902205049 | 47 | 0 | 0.0 | 0.0 | 0.11 | 0.23 | 0.23 | 95 | 1002.3 |
| 20260902204548 | 47 | 0 | 0.0 | 0.0 | 0.11 | 0.23 | 0.23 | 94 | 1002.3 |
| 20260902204031 | 47 | 0 | 0.0 | 0.0 | 0.13 | 0.23 | 0.23 | 94 | 1002.4 |
| 20260902203530 | 47 | 0 | 0.0 | 0.0 | 0.16 | 0.23 | 0.23 | 94 | 1002.4 |
| 20260902203053 | 47 | 0 | 0.0 | 1.0 | 0.16 | 0.23 | 0.23 | 93 | 1002.3 |
| 20260902202532 | 47 | 0 | 0.0 | 1.0 | 0.15 | 0.22 | 0.22 | 92 | 1002.4 |
| 20260902202032 | 48 | 0 | 0.0 | 4.0 | 0.13 | 0.20 | 0.20 | 91 | 1002.6 |
| 20260902201604 | 48 | 0 | 0.0 | 4.0 | 0.11 | 0.18 | 0.18 | 90 | 1002.6 |
| 20260902201033 | 48 | 326 | 1.0 | 4.0 | 0.10 | 0.17 | 0.17 | 89 | 1002.6 |
| 20260902200533 | 48 | 0 | 0.0 | 3.0 | 0.08 | 0.15 | 0.15 | 88 | 1002.7 |
| 20260902200114 | 48 | 161 | 0.0 | 5.0 | 0.06 | 0.13 | 0.13 | 89 | 1002.6 |
| 20260902195529 | 48 | 263 | 1.0 | 5.0 | 0.06 | 0.18 | 0.13 | 89 | 1002.6 |
| 20260902195030 | 48 | 140 | 1.0 | 5.0 | 0.05 | 0.17 | 0.12 | 90 | 1002.7 |
| 20260902194557 | 49 | 89 | 2.0 | 5.0 | 0.05 | 0.17 | 0.12 | 89 | 1002.7 |
| 20260902194030 | 49 | 148 | 2.0 | 7.0 | 0.02 | 0.14 | 0.09 | 88 | 1002.8 |
| 20260902193530 | 50 | 129 | 2.0 | 9.0 | 0.00 | 0.12 | 0.07 | 88 | 1002.7 |
| 20260902193054 | 51 | 81 | 3.0 | 10.0 | 0.00 | 0.12 | 0.07 | 90 | 1002.8 |
| 20260902192531 | 50 | 257 | 1.0 | 10.0 | 0.00 | 0.12 | 0.07 | 92 | 1002.9 |
| 20260902192031 | 50 | 152 | 3.0 | 7.0 | 0.00 | 0.12 | 0.07 | 94 | 1002.7 |
| 20260902191551 | 50 | 0 | 0.0 | 0.0 | 0.00 | 0.12 | 0.07 | 94 | 1002.4 |
| 20260902191031 | 50 | 0 | 0.0 | 0.0 | 0.00 | 0.12 | 0.07 | 94 | 1002.3 |
| 20260902190532 | 50 | 0 | 0.0 | 0.0 | 0.00 | 0.12 | 0.07 | 94 | 1002.2 |
| 20260902190059 | 50 | 0 | 0.0 | 0.0 | 0.00 | 0.12 | 0.07 | 95 | 1002.0 |
| 20260902185531 | 50 | 0 | 0.0 | 0.0 | 0.00 | 0.23 | 0.07 | 95 | 1001.9 |
| 20260902185031 | 50 | 0 | 0.0 | 0.0 | 0.00 | 0.23 | 0.07 | 95 | 1001.9 |
| 20260902184549 | 50 | 0 | 0.0 | 0.0 | 0.00 | 0.23 | 0.07 | 95 | 1001.9 |
| 20260902184030 | 50 | 0 | 0.0 | 0.0 | 0.00 | 0.23 | 0.07 | 95 | 1001.9 |
| 20260902183531 | 50 | 0 | 0.0 | 0.0 | 0.00 | 0.23 | 0.07 | 95 | 1002.0 |
| 20260902183107 | 51 | 0 | 0.0 | 0.0 | 0.00 | 0.23 | 0.07 | 95 | 1001.8 |
| 20260902182533 | 51 | 0 | 0.0 | 0.0 | 0.00 | 0.23 | 0.07 | 95 | 1001.8 |
| 20260902182031 | 51 | 0 | 0.0 | 0.0 | 0.00 | 0.23 | 0.07 | 95 | 1001.7 |
| 20260902181554 | 51 | 0 | 0.0 | 0.0 | 0.00 | 0.23 | 0.07 | 95 | 1001.6 |
| 20260902181031 | 51 | 0 | 0.0 | 0.0 | 0.00 | 0.23 | 0.07 | 95 | 1001.7 |
| 20260902180528 | 51 | 0 | 0.0 | 0.0 | 0.00 | 0.23 | 0.07 | 95 | 1001.7 |
| 20260902180054 | 51 | 0 | 0.0 | 0.0 | 0.00 | 0.23 | 0.07 | 95 | 1001.7 |
| 20260902175531 | 51 | 0 | 0.0 | 0.0 | 0.00 | 0.23 | 0.07 | 95 | 1001.7 |
| 20260902175034 | 52 | 0 | 0.0 | 0.0 | 0.00 | 0.23 | 0.07 | 95 | 1001.7 |
| 20260902174547 | 52 | 0 | 0.0 | 0.0 | 0.00 | 0.23 | 0.07 | 95 | 1001.6 |
| 20260902174030 | 52 | 0 | 0.0 | 0.0 | 0.00 | 0.23 | 0.07 | 95 | 1001.7 |
| 20260902173530 | 52 | 0 | 0.0 | 0.0 | 0.00 | 0.23 | 0.07 | 95 | 1001.7 |
| 20260902173053 | 52 | 0 | 0.0 | 0.0 | 0.00 | 0.23 | 0.07 | 95 | 1001.8 |
| 20260902172532 | 52 | 0 | 0.0 | 0.0 | 0.00 | 0.23 | 0.07 | 95 | 1001.8 |
| 20260902172033 | 52 | 0 | 0.0 | 0.0 | 0.00 | 0.23 | 0.07 | 95 | 1001.8 |
| 20260902171551 | 52 | 0 | 0.0 | 0.0 | 0.00 | 0.23 | 0.07 | 95 | 1001.8 |
| 20260902171030 | 52 | 0 | 0.0 | 0.0 | 0.00 | 0.23 | 0.07 | 95 | 1001.9 |
| 20260902170533 | 52 | 0 | 0.0 | 0.0 | 0.00 | 0.23 | 0.07 | 95 | 1001.9 |
| 20260902170055 | 52 | 0 | 0.0 | 0.0 | 0.01 | 0.23 | 0.07 | 95 | 1001.8 |
| 20260902165531 | 52 | 0 | 0.0 | 0.0 | 0.01 | 0.23 | 0.07 | 94 | 1001.7 |
| 20260902165030 | 52 | 0 | 0.0 | 0.0 | 0.01 | 0.23 | 0.07 | 94 | 1001.7 |
| 20260902164553 | 52 | 0 | 0.0 | 0.0 | 0.01 | 0.23 | 0.07 | 94 | 1001.6 |
| 20260902164030 | 52 | 0 | 0.0 | 0.0 | 0.03 | 0.23 | 0.07 | 93 | 1001.6 |
| 20260902163532 | 52 | 0 | 0.0 | 0.0 | 0.04 | 0.23 | 0.07 | 93 | 1001.6 |
| 20260902163049 | 52 | 0 | 0.0 | 0.0 | 0.04 | 0.23 | 0.07 | 93 | 1001.6 |
| 20260902162528 | 52 | 0 | 0.0 | 0.0 | 0.04 | 0.23 | 0.07 | 92 | 1001.6 |
| 20260902162033 | 52 | 0 | 0.0 | 0.0 | 0.04 | 0.23 | 0.07 | 92 | 1001.6 |
| 20260902161556 | 52 | 0 | 0.0 | 2.0 | 0.04 | 0.23 | 0.07 | 92 | 1001.6 |
| 20260902161029 | 52 | 0 | 0.0 | 2.0 | 0.04 | 0.23 | 0.07 | 93 | 1001.6 |
| 20260902160531 | 51 | 241 | 0.0 | 2.0 | 0.04 | 0.23 | 0.07 | 93 | 1001.6 |
| 20260902160055 | 52 | 314 | 0.0 | 2.0 | 0.03 | 0.22 | 0.06 | 92 | 1001.5 |
| 20260902155530 | 52 | 0 | 0.0 | 1.0 | 0.03 | 0.22 | 0.06 | 91 | 1001.6 |
| 20260902155030 | 52 | 0 | 0.0 | 0.0 | 0.03 | 0.22 | 0.06 | 90 | 1001.7 |
| 20260902154551 | 52 | 0 | 0.0 | 2.0 | 0.02 | 0.21 | 0.05 | 89 | 1001.8 |
| 20260902154030 | 53 | 0 | 0.0 | 2.0 | 0.01 | 0.20 | 0.04 | 88 | 1002.1 |
| 20260902153531 | 54 | 304 | 1.0 | 4.0 | 0.00 | 0.19 | 0.03 | 86 | 1002.2 |
| 20260902153047 | 54 | 0 | 0.0 | 4.0 | 0.00 | 0.19 | 0.03 | 84 | 1002.3 |
| 20260902152530 | 54 | 158 | 0.0 | 4.0 | 0.00 | 0.19 | 0.03 | 83 | 1002.3 |
| 20260902152031 | 54 | 0 | 0.0 | 1.0 | 0.00 | 0.19 | 0.03 | 82 | 1002.3 |
| 20260902151546 | 55 | 0 | 0.0 | 2.0 | 0.00 | 0.19 | 0.03 | 79 | 1002.2 |
| 20260902151029 | 56 | 0 | 0.0 | 6.0 | 0.00 | 0.19 | 0.03 | 77 | 1002.2 |
| 20260902150531 | 55 | 0 | 1.0 | 7.0 | 0.00 | 0.19 | 0.03 | 76 | 1002.0 |
| 20260902150053 | 55 | 312 | 1.0 | 7.0 | 0.00 | 0.19 | 0.03 | 79 | 1002.0 |
| 20260902145530 | 55 | 0 | 0.0 | 3.0 | 0.00 | 0.19 | 0.03 | 80 | 1001.8 |
| 20260902145027 | 55 | 12 | 0.0 | 1.0 | 0.00 | 0.19 | 0.03 | 80 | 1001.9 |
| 20260902144549 | 56 | 281 | 0.0 | 4.0 | 0.00 | 0.19 | 0.03 | 78 | 1001.7 |
| 20260902144053 | 56 | 0 | 0.0 | 5.0 | 0.00 | 0.19 | 0.03 | 77 | 1001.8 |
| 20260902143529 | 56 | 30 | 1.0 | 9.0 | 0.00 | 0.19 | 0.03 | 72 | 1002.0 |
| 20260902143049 | 56 | 24 | 3.0 | 9.0 | 0.00 | 0.19 | 0.03 | 74 | 1002.0 |
| 20260902142531 | 56 | 80 | 2.0 | 6.0 | 0.00 | 0.19 | 0.03 | 73 | 1002.1 |
| 20260902142031 | 56 | 56 | 1.0 | 9.0 | 0.00 | 0.19 | 0.03 | 73 | 1002.2 |
| 20260902141558 | 56 | 0 | 1.0 | 10.0 | 0.00 | 0.19 | 0.03 | 73 | 1002.2 |
| 20260902141029 | 57 | 358 | 4.0 | 10.0 | 0.00 | 0.19 | 0.03 | 68 | 1002.2 |
| 20260902140530 | 57 | 23 | 2.0 | 7.0 | 0.00 | 0.19 | 0.03 | 69 | 1002.3 |
| 20260902140052 | 58 | 44 | 3.0 | 9.0 | 0.00 | 0.19 | 0.03 | 69 | 1002.2 |
| 20260902135529 | 58 | 49 | 3.0 | 9.0 | 0.00 | 0.19 | 0.03 | 69 | 1002.2 |
| 20260902135030 | 59 | 359 | 3.0 | 9.0 | 0.00 | 0.19 | 0.03 | 68 | 1002.2 |
| 20260902134551 | 59 | 70 | 1.0 | 9.0 | 0.00 | 0.19 | 0.03 | 68 | 1002.3 |
| 20260902134031 | 58 | 57 | 3.0 | 10.0 | 0.00 | 0.19 | 0.03 | 68 | 1002.2 |
| 20260902133530 | 58 | 17 | 3.0 | 12.0 | 0.00 | 0.19 | 0.03 | 68 | 1002.2 |
| 20260902133050 | 58 | 20 | 4.0 | 12.0 | 0.00 | 0.19 | 0.03 | 67 | 1002.3 |
| 20260902132532 | 58 | 73 | 4.0 | 12.0 | 0.00 | 0.19 | 0.03 | 68 | 1002.3 |
| 20260902132031 | 59 | 309 | 3.0 | 12.0 | 0.00 | 0.19 | 0.03 | 68 | 1002.4 |
| 20260902131604 | 59 | 30 | 4.0 | 12.0 | 0.00 | 0.19 | 0.03 | 69 | 1002.3 |
| 20260902131030 | 59 | 39 | 4.0 | 10.0 | 0.00 | 0.19 | 0.03 | 68 | 1002.4 |
| 20260902130530 | 59 | 60 | 3.0 | 10.0 | 0.00 | 0.19 | 0.03 | 71 | 1002.3 |
| 20260902130052 | 60 | 84 | 3.0 | 13.0 | 0.00 | 0.19 | 0.03 | 73 | 1002.2 |
| 20260902125530 | 60 | 86 | 4.0 | 13.0 | 0.00 | 0.19 | 0.03 | 72 | 1002.4 |
| 20260902125031 | 60 | 41 | 3.0 | 6.0 | 0.00 | 0.19 | 0.03 | 73 | 1002.4 |
| 20260902124558 | 60 | 28 | 2.0 | 7.0 | 0.00 | 0.19 | 0.03 | 77 | 1002.4 |
| 20260902124030 | 60 | 46 | 0.0 | 7.0 | 0.00 | 0.19 | 0.03 | 78 | 1002.2 |
| 20260902123531 | 59 | 53 | 3.0 | 7.0 | 0.00 | 0.19 | 0.03 | 78 | 1002.2 |
| 20260902123047 | 59 | 69 | 1.0 | 7.0 | 0.00 | 0.19 | 0.03 | 77 | 1002.2 |
| 20260902122530 | 59 | 32 | 3.0 | 7.0 | 0.00 | 0.19 | 0.03 | 75 | 1002.1 |
| 20260902122031 | 60 | 63 | 1.0 | 5.0 | 0.00 | 0.19 | 0.03 | 77 | 1002.2 |
| 20260902121552 | 60 | 41 | 2.0 | 5.0 | 0.00 | 0.19 | 0.03 | 78 | 1002.2 |
| 20260902121031 | 59 | 58 | 2.0 | 6.0 | 0.00 | 0.19 | 0.03 | 79 | 1002.3 |
| 20260902120530 | 59 | 51 | 3.0 | 6.0 | 0.00 | 0.19 | 0.03 | 78 | 1002.3 |
| 20260902120053 | 59 | 47 | 0.0 | 5.0 | 0.00 | 0.19 | 0.03 | 78 | 1002.4 |
| 20260902115529 | 59 | 56 | 2.0 | 5.0 | 0.00 | 0.19 | 0.03 | 79 | 1002.3 |
| 20260902115032 | 59 | 59 | 0.0 | 4.0 | 0.00 | 0.19 | 0.03 | 79 | 1002.3 |
| 20260902114549 | 59 | 0 | 1.0 | 4.0 | 0.00 | 0.19 | 0.03 | 79 | 1002.3 |
| 20260902114031 | 59 | 41 | 1.0 | 4.0 | 0.00 | 0.19 | 0.03 | 79 | 1002.2 |
| 20260902113528 | 59 | 0 | 0.0 | 4.0 | 0.00 | 0.19 | 0.03 | 81 | 1002.3 |
| 20260902113105 | 59 | 0 | 0.0 | 4.0 | 0.00 | 0.19 | 0.03 | 79 | 1002.4 |
| 20260902112530 | 59 | 0 | 0.0 | 1.0 | 0.00 | 0.19 | 0.03 | 80 | 1002.4 |
| 20260902112033 | 58 | 0 | 0.0 | 1.0 | 0.00 | 0.19 | 0.03 | 80 | 1002.4 |
| 20260902111600 | 58 | 0 | 0.0 | 3.0 | 0.00 | 0.19 | 0.03 | 81 | 1002.3 |
| 20260902111031 | 58 | 0 | 0.0 | 3.0 | 0.00 | 0.19 | 0.03 | 80 | 1002.3 |
| 20260902110531 | 58 | 0 | 0.0 | 1.0 | 0.00 | 0.19 | 0.03 | 80 | 1002.3 |
| 20260902110050 | 58 | 0 | 0.0 | 2.0 | 0.00 | 0.19 | 0.03 | 80 | 1002.4 |
| 20260902105529 | 58 | 63 | 0.0 | 2.0 | 0.00 | 0.19 | 0.03 | 80 | 1002.3 |
| 20260902105030 | 58 | 51 | 0.0 | 2.0 | 0.00 | 0.19 | 0.03 | 80 | 1002.2 |
| 20260902104549 | 58 | 0 | 0.0 | 4.0 | 0.00 | 0.19 | 0.03 | 80 | 1002.3 |
| 20260902104028 | 58 | 0 | 1.0 | 4.0 | 0.00 | 0.19 | 0.03 | 79 | 1002.4 |
| 20260902103533 | 58 | 0 | 0.0 | 5.0 | 0.00 | 0.19 | 0.03 | 80 | 1002.3 |
| 20260902103050 | 58 | 60 | 1.0 | 5.0 | 0.00 | 0.19 | 0.03 | 78 | 1002.4 |
| 20260902102527 | 58 | 14 | 0.0 | 2.0 | 0.00 | 0.19 | 0.03 | 79 | 1002.4 |
| 20260902102027 | 57 | 0 | 0.0 | 2.0 | 0.00 | 0.19 | 0.03 | 79 | 1002.5 |
| 20260902101543 | 57 | 33 | 0.0 | 2.0 | 0.00 | 0.19 | 0.03 | 79 | 1002.5 |
| 20260902101031 | 58 | 0 | 0.0 | 1.0 | 0.00 | 0.19 | 0.03 | 81 | 1002.4 |
| 20260902100527 | 58 | 0 | 0.0 | 2.0 | 0.00 | 0.19 | 0.03 | 78 | 1002.3 |
| 20260902100053 | 58 | 0 | 0.0 | 3.0 | 0.00 | 0.19 | 0.03 | 79 | 1002.4 |
| 20260902095530 | 58 | 4 | 0.0 | 5.0 | 0.00 | 0.19 | 0.03 | 80 | 1002.4 |
| 20260902095029 | 58 | 0 | 0.0 | 5.0 | 0.00 | 0.19 | 0.03 | 81 | 1002.4 |
| 20260902094552 | 58 | 0 | 0.0 | 3.0 | 0.00 | 0.19 | 0.03 | 81 | 1002.3 |
| 20260902094033 | 57 | 72 | 1.0 | 3.0 | 0.00 | 0.19 | 0.03 | 82 | 1002.4 |
| 20260902093531 | 57 | 0 | 0.0 | 0.0 | 0.00 | 0.19 | 0.03 | 81 | 1002.4 |
| 20260902093049 | 56 | 0 | 0.0 | 0.0 | 0.00 | 0.19 | 0.03 | 81 | 1002.4 |
| 20260902092527 | 57 | 0 | 0.0 | 0.0 | 0.00 | 0.19 | 0.03 | 81 | 1002.5 |
| 20260902092030 | 56 | 0 | 0.0 | 2.0 | 0.00 | 0.19 | 0.03 | 83 | 1002.5 |
| 20260902091553 | 56 | 0 | 0.0 | 2.0 | 0.00 | 0.19 | 0.03 | 81 | 1002.5 |
| 20260902091036 | 56 | 0 | 0.0 | 1.0 | 0.00 | 0.19 | 0.03 | 82 | 1002.6 |
| 20260902090530 | 56 | 0 | 0.0 | 1.0 | 0.00 | 0.19 | 0.03 | 86 | 1002.5 |
| 20260902090051 | 55 | 0 | 0.0 | 1.0 | 0.00 | 0.19 | 0.03 | 88 | 1002.5 |
| 20260902085531 | 55 | 0 | 0.0 | 1.0 | 0.00 | 0.19 | 0.03 | 89 | 1002.5 |
| 20260902085029 | 55 | 0 | 0.0 | 0.0 | 0.00 | 0.19 | 0.03 | 92 | 1002.5 |
| 20260902084553 | 55 | 6 | 0.0 | 1.0 | 0.00 | 0.19 | 0.03 | 92 | 1002.4 |
| 20260902084031 | 55 | 0 | 0.0 | 1.0 | 0.00 | 0.19 | 0.03 | 92 | 1002.4 |
| 20260902083532 | 55 | 0 | 0.0 | 1.0 | 0.00 | 0.19 | 0.03 | 91 | 1002.3 |
| 20260902083055 | 55 | 0 | 0.0 | 1.0 | 0.00 | 0.19 | 0.03 | 91 | 1002.3 |
| 20260902082531 | 54 | 67 | 0.0 | 1.0 | 0.00 | 0.19 | 0.03 | 89 | 1002.2 |
| 20260902082030 | 55 | 0 | 0.0 | 0.0 | 0.00 | 0.19 | 0.03 | 91 | 1002.2 |
| 20260902081553 | 55 | 0 | 0.0 | 0.0 | 0.00 | 0.19 | 0.03 | 90 | 1002.2 |
| 20260902081031 | 55 | 0 | 0.0 | 0.0 | 0.00 | 0.19 | 0.03 | 89 | 1002.2 |
| 20260902080530 | 55 | 0 | 0.0 | 3.0 | 0.00 | 0.19 | 0.03 | 88 | 1002.2 |
| 20260902080105 | 55 | 0 | 0.0 | 3.0 | 0.00 | 0.19 | 0.03 | 87 | 1002.2 |
| 20260902075531 | 56 | 48 | 0.0 | 2.0 | 0.00 | 0.19 | 0.03 | 86 | 1002.3 |
| 20260902075030 | 56 | 146 | 0.0 | 3.0 | 0.00 | 0.19 | 0.03 | 88 | 1002.3 |
| 20260902074600 | 56 | 0 | 0.0 | 3.0 | 0.00 | 0.19 | 0.03 | 89 | 1002.2 |
| 20260902074032 | 56 | 0 | 0.0 | 1.0 | 0.00 | 0.19 | 0.03 | 93 | 1002.3 |
| 20260902073532 | 55 | 0 | 0.0 | 1.0 | 0.00 | 0.19 | 0.03 | 94 | 1002.3 |
| 20260902073100 | 55 | 0 | 0.0 | 1.0 | 0.00 | 0.19 | 0.03 | 96 | 1002.2 |
| 20260902072530 | 54 | 0 | 0.0 | 1.0 | 0.00 | 0.19 | 0.03 | 96 | 1002.2 |
| 20260902072035 | 53 | 0 | 0.0 | 2.0 | 0.00 | 0.19 | 0.03 | 96 | 1002.2 |
| 20260902071557 | 53 | 0 | 0.0 | 2.0 | 0.01 | 0.19 | 0.03 | 96 | 1002.1 |
| 20260902071034 | 53 | 0 | 0.0 | 2.0 | 0.02 | 0.19 | 0.03 | 96 | 1002.1 |
| 20260902070530 | 53 | 0 | 0.0 | 2.0 | 0.02 | 0.19 | 0.03 | 96 | 1002.1 |
| 20260902070100 | 53 | 63 | 0.0 | 0.0 | 0.02 | 0.19 | 0.03 | 96 | 1002.0 |
| 20260902065532 | 53 | 0 | 0.0 | 0.0 | 0.02 | 0.19 | 0.03 | 97 | 1002.1 |
| 20260902065036 | 53 | 0 | 0.0 | 0.0 | 0.02 | 0.19 | 0.03 | 97 | 1002.1 |
| 20260902064601 | 53 | 0 | 0.0 | 0.0 | 0.02 | 0.19 | 0.03 | 97 | 1002.1 |
| 20260902064029 | 52 | 0 | 0.0 | 0.0 | 0.02 | 0.19 | 0.03 | 97 | 1002.1 |
| 20260902063535 | 52 | 0 | 0.0 | 0.0 | 0.02 | 0.19 | 0.03 | 97 | 1002.1 |
| 20260902063048 | 52 | 0 | 0.0 | 0.0 | 0.02 | 0.19 | 0.03 | 97 | 1002.1 |
| 20260902062533 | 52 | 0 | 0.0 | 0.0 | 0.02 | 0.19 | 0.03 | 97 | 1002.2 |
| 20260902062031 | 52 | 0 | 0.0 | 0.0 | 0.02 | 0.19 | 0.03 | 97 | 1002.0 |
| 20260902061617 | 52 | 0 | 0.0 | 0.0 | 0.01 | 0.18 | 0.02 | 97 | 1002.1 |
| 20260902061030 | 52 | 0 | 0.0 | 0.0 | 0.00 | 0.17 | 0.01 | 97 | 1001.9 |
| 20260902060531 | 52 | 0 | 0.0 | 0.0 | 0.00 | 0.17 | 0.01 | 97 | 1001.9 |
| 20260902060056 | 52 | 0 | 0.0 | 0.0 | 0.00 | 0.17 | 0.01 | 97 | 1001.8 |
| 20260902055533 | 52 | 0 | 0.0 | 0.0 | 0.00 | 0.17 | 0.01 | 97 | 1001.8 |
| 20260902055031 | 52 | 0 | 0.0 | 0.0 | 0.00 | 0.17 | 0.01 | 97 | 1001.9 |
| 20260902054557 | 52 | 0 | 0.0 | 0.0 | 0.00 | 0.17 | 0.01 | 98 | 1001.9 |
| 20260902054034 | 52 | 0 | 0.0 | 0.0 | 0.00 | 0.17 | 0.01 | 97 | 1001.7 |
| 20260902053531 | 51 | 0 | 0.0 | 0.0 | 0.00 | 0.17 | 0.01 | 97 | 1001.6 |
| 20260902053105 | 51 | 0 | 0.0 | 0.0 | 0.00 | 0.17 | 0.01 | 97 | 1001.6 |
| 20260902052533 | 51 | 0 | 0.0 | 0.0 | 0.01 | 0.17 | 0.01 | 97 | 1001.7 |
| 20260902052031 | 51 | 0 | 0.0 | 0.0 | 0.01 | 0.17 | 0.01 | 97 | 1001.7 |
| 20260902051558 | 51 | 0 | 0.0 | 0.0 | 0.01 | 0.17 | 0.01 | 97 | 1001.6 |
| 20260902051030 | 51 | 0 | 0.0 | 0.0 | 0.01 | 0.17 | 0.01 | 97 | 1001.6 |
| 20260902050530 | 51 | 0 | 0.0 | 0.0 | 0.01 | 0.17 | 0.01 | 97 | 1001.4 |
| 20260902045529 | 51 | 0 | 0.0 | 0.0 | 0.01 | 0.17 | 0.01 | 97 | 1001.6 |
| 20260902045029 | 51 | 0 | 0.0 | 0.0 | 0.01 | 0.17 | 0.01 | 97 | 1001.4 |
| 20260902044550 | 51 | 0 | 0.0 | 0.0 | 0.01 | 0.17 | 0.01 | 97 | 1001.4 |
| 20260902044031 | 51 | 0 | 0.0 | 0.0 | 0.01 | 0.17 | 0.01 | 97 | 1001.3 |
| 20260902043531 | 51 | 0 | 0.0 | 0.0 | 0.01 | 0.17 | 0.01 | 97 | 1001.3 |
| 20260902043050 | 51 | 0 | 0.0 | 0.0 | 0.01 | 0.17 | 0.01 | 97 | 1001.3 |
| 20260902042530 | 51 | 0 | 0.0 | 0.0 | 0.00 | 0.16 | 0.00 | 97 | 1001.3 |
| 20260902042029 | 51 | 0 | 0.0 | 0.0 | 0.00 | 0.16 | 0.00 | 97 | 1001.2 |
| 20260902041606 | 51 | 0 | 0.0 | 0.0 | 0.00 | 0.16 | 0.00 | 97 | 1001.2 |
| 20260902041032 | 51 | 0 | 0.0 | 0.0 | 0.00 | 0.16 | 0.00 | 97 | 1001.1 |
| 20260902040535 | 51 | 0 | 0.0 | 0.0 | 0.00 | 0.16 | 0.00 | 97 | 1001.2 |
| 20260902040054 | 51 | 0 | 0.0 | 0.0 | 0.00 | 0.16 | 0.00 | 97 | 1001.1 |
| 20260902035529 | 51 | 0 | 0.0 | 0.0 | 0.00 | 0.16 | 0.00 | 97 | 1001.1 |
| 20260902035030 | 51 | 0 | 0.0 | 0.0 | 0.00 | 0.16 | 0.00 | 97 | 1001.1 |
| 20260902034554 | 51 | 0 | 0.0 | 0.0 | 0.00 | 0.16 | 0.00 | 97 | 1001.0 |
| 20260902034032 | 51 | 0 | 0.0 | 0.0 | 0.00 | 0.16 | 0.00 | 97 | 1001.0 |
| 20260902033532 | 51 | 0 | 0.0 | 0.0 | 0.00 | 0.16 | 0.00 | 97 | 1001.0 |
| 20260902033104 | 51 | 0 | 0.0 | 0.0 | 0.00 | 0.16 | 0.00 | 97 | 1001.0 |
| 20260902032533 | 51 | 0 | 0.0 | 0.0 | 0.00 | 0.16 | 0.00 | 97 | 1000.8 |
| 20260902032032 | 51 | 0 | 0.0 | 0.0 | 0.00 | 0.16 | 0.00 | 97 | 1001.0 |
| 20260902031601 | 51 | 0 | 0.0 | 0.0 | 0.00 | 0.16 | 0.00 | 97 | 1001.1 |
| 20260902031030 | 51 | 0 | 0.0 | 0.0 | 0.00 | 0.16 | 0.00 | 97 | 1001.1 |
| 20260902030531 | 51 | 0 | 0.0 | 0.0 | 0.00 | 0.16 | 0.00 | 97 | 1001.2 |
| 20260902030051 | 51 | 0 | 0.0 | 0.0 | 0.00 | 0.16 | 0.00 | 97 | 1001.2 |
| 20260902025530 | 51 | 0 | 0.0 | 0.0 | 0.00 | 0.16 | 0.00 | 97 | 1001.1 |
| 20260902025031 | 51 | 0 | 0.0 | 0.0 | 0.00 | 0.16 | 0.00 | 97 | 1000.9 |
| 20260902024549 | 51 | 0 | 0.0 | 0.0 | 0.00 | 0.16 | 0.00 | 97 | 1001.0 |
| 20260902024030 | 51 | 0 | 0.0 | 0.0 | 0.00 | 0.16 | 0.00 | 97 | 1001.0 |
| 20260902023530 | 51 | 0 | 0.0 | 0.0 | 0.00 | 0.16 | 0.00 | 97 | 1001.1 |
| 20260902023047 | 51 | 0 | 0.0 | 0.0 | 0.00 | 0.16 | 0.00 | 97 | 1001.1 |
| 20260902022558 | 51 | 0 | 0.0 | 0.0 | 0.00 | 0.16 | 0.00 | 97 | 1001.0 |
| 20260902022031 | 51 | 0 | 0.0 | 0.0 | 0.00 | 0.16 | 0.00 | 97 | 1001.2 |
| 20260902021612 | 51 | 0 | 0.0 | 0.0 | 0.00 | 0.16 | 0.00 | 97 | 1001.1 |
| 20260902021031 | 51 | 0 | 0.0 | 0.0 | 0.00 | 0.16 | 0.00 | 97 | 1001.2 |
| 20260902020533 | 51 | 0 | 0.0 | 0.0 | 0.00 | 0.16 | 0.00 | 97 | 1001.0 |
| 20260902020057 | 51 | 0 | 0.0 | 0.0 | 0.00 | 0.16 | 0.00 | 97 | 1001.0 |
| 20260902015531 | 51 | 0 | 0.0 | 0.0 | 0.00 | 0.16 | 0.00 | 97 | 1000.9 |
| 20260902015031 | 51 | 0 | 0.0 | 0.0 | 0.00 | 0.16 | 0.00 | 97 | 1000.9 |
| 20260902014557 | 51 | 0 | 0.0 | 0.0 | 0.00 | 0.16 | 0.00 | 97 | 1001.1 |
| 20260902014032 | 51 | 0 | 0.0 | 0.0 | 0.00 | 0.16 | 0.00 | 97 | 1001.0 |
| 20260902013532 | 51 | 0 | 0.0 | 0.0 | 0.00 | 0.16 | 0.00 | 97 | 1001.1 |
| 20260902013052 | 51 | 0 | 0.0 | 0.0 | 0.00 | 0.16 | 0.00 | 97 | 1001.1 |
| 20260902012530 | 51 | 0 | 0.0 | 0.0 | 0.00 | 0.16 | 0.00 | 97 | 1001.2 |
| 20260902012030 | 51 | 0 | 0.0 | 0.0 | 0.00 | 0.16 | 0.00 | 97 | 1001.3 |
| 20260902011549 | 51 | 0 | 0.0 | 0.0 | 0.00 | 0.16 | 0.00 | 97 | 1001.4 |
| 20260902011032 | 51 | 0 | 0.0 | 0.0 | 0.00 | 0.16 | 0.00 | 97 | 1001.3 |
| 20260902010532 | 51 | 0 | 0.0 | 0.0 | 0.00 | 0.16 | 0.00 | 97 | 1001.4 |
| 20260902010058 | 51 | 0 | 0.0 | 0.0 | 0.00 | 0.16 | 0.00 | 97 | 1001.3 |
| 20260902005529 | 51 | 0 | 0.0 | 0.0 | 0.00 | 0.16 | 0.00 | 97 | 1001.4 |
| 20260902005032 | 51 | 0 | 0.0 | 0.0 | 0.00 | 0.16 | 0.00 | 97 | 1001.4 |
| 20260902004549 | 51 | 0 | 0.0 | 0.0 | 0.00 | 0.16 | 0.00 | 97 | 1001.3 |
| 20260902004030 | 51 | 0 | 0.0 | 0.0 | 0.00 | 0.16 | 0.00 | 97 | 1001.4 |
| 20260902003530 | 51 | 0 | 0.0 | 0.0 | 0.00 | 0.16 | 0.00 | 97 | 1001.5 |
| 20260902003049 | 51 | 0 | 0.0 | 0.0 | 0.00 | 0.16 | 0.00 | 97 | 1001.5 |
| 20260902002530 | 51 | 0 | 0.0 | 0.0 | 0.00 | 0.16 | 0.00 | 97 | 1001.6 |
| 20260902002033 | 51 | 0 | 0.0 | 0.0 | 0.00 | 0.16 | 0.00 | 97 | 1001.6 |
| 20260902001550 | 51 | 0 | 0.0 | 0.0 | 0.00 | 0.16 | 0.00 | 97 | 1001.6 |
| 20260902001031 | 51 | 0 | 0.0 | 0.0 | 0.00 | 0.16 | 0.00 | 97 | 1001.6 |
| 20260902000532 | 51 | 0 | 0.0 | 0.0 | 0.00 | 0.16 | 0.00 | 97 | 1001.7 |
| 20260902000056 | 51 | 0 | 0.0 | 0.0 | 0.00 | 0.16 | 0.00 | 97 | 1001.8 |
| 20260901235534 | 51 | 0 | 0.0 | 0.0 | 0.00 | 0.16 | 0.00 | 97 | 1001.8 |
| 20260901235031 | 51 | 0 | 0.0 | 0.0 | 0.00 | 0.16 | 0.00 | 97 | 1001.9 |
| 20260901234607 | 51 | 0 | 0.0 | 0.0 | 0.00 | 0.16 | 0.00 | 97 | 1001.9 |
| 20260901234033 | 51 | 0 | 0.0 | 0.0 | 0.00 | 0.16 | 0.00 | 97 | 1002.0 |
| 20260901233533 | 51 | 0 | 0.0 | 0.0 | 0.00 | 0.16 | 0.00 | 97 | 1002.0 |
| 20260901233046 | 51 | 0 | 0.0 | 0.0 | 0.00 | 0.16 | 0.00 | 97 | 1002.2 |
| 20260901232532 | 51 | 0 | 0.0 | 0.0 | 0.00 | 0.16 | 0.00 | 97 | 1002.1 |
| 20260901232032 | 52 | 0 | 0.0 | 0.0 | 0.00 | 0.16 | 0.00 | 97 | 1002.1 |
| 20260901231553 | 52 | 0 | 0.0 | 0.0 | 0.00 | 0.16 | 0.00 | 97 | 1002.1 |
| 20260901231032 | 52 | 0 | 0.0 | 0.0 | 0.00 | 0.16 | 0.00 | 97 | 1002.3 |
| 20260901230530 | 52 | 0 | 0.0 | 0.0 | 0.00 | 0.16 | 0.00 | 97 | 1002.2 |
| 20260901230132 | 52 | 0 | 0.0 | 0.0 | 0.00 | 0.16 | 0.00 | 97 | 1002.4 |
| 20260901225530 | 52 | 0 | 0.0 | 0.0 | 0.00 | 0.16 | 0.00 | 97 | 1002.5 |
| 20260901225031 | 52 | 0 | 0.0 | 0.0 | 0.00 | 0.16 | 0.00 | 97 | 1002.5 |
| 20260901224548 | 52 | 0 | 0.0 | 0.0 | 0.00 | 0.16 | 0.00 | 96 | 1002.6 |
| 20260901224031 | 52 | 0 | 0.0 | 0.0 | 0.00 | 0.16 | 0.00 | 96 | 1002.4 |
| 20260901223530 | 52 | 0 | 0.0 | 0.0 | 0.00 | 0.16 | 0.00 | 96 | 1002.6 |
| 20260901223106 | 52 | 0 | 0.0 | 0.0 | 0.00 | 0.16 | 0.00 | 96 | 1002.7 |
| 20260901222532 | 52 | 0 | 0.0 | 0.0 | 0.00 | 0.16 | 0.00 | 96 | 1002.8 |
| 20260901222030 | 52 | 0 | 0.0 | 0.0 | 0.00 | 0.16 | 0.00 | 96 | 1002.9 |
| 20260901221554 | 52 | 0 | 0.0 | 0.0 | 0.00 | 0.16 | 0.00 | 96 | 1002.9 |
| 20260901221030 | 52 | 0 | 0.0 | 0.0 | 0.00 | 0.16 | 0.00 | 96 | 1003.1 |
| 20260901220532 | 52 | 0 | 0.0 | 0.0 | 0.00 | 0.16 | 0.00 | 96 | 1003.1 |
| 20260901220059 | 52 | 0 | 0.0 | 2.0 | 0.00 | 0.16 | 0.00 | 96 | 1003.0 |
| 20260901215531 | 53 | 0 | 0.0 | 2.0 | 0.00 | 0.16 | 0.16 | 96 | 1003.1 |
| 20260901215031 | 53 | 110 | 0.0 | 2.0 | 0.00 | 0.16 | 0.16 | 96 | 1003.2 |
| 20260901214548 | 53 | 269 | 0.0 | 1.0 | 0.00 | 0.16 | 0.16 | 96 | 1003.1 |
| 20260901214034 | 53 | 0 | 0.0 | 2.0 | 0.00 | 0.16 | 0.16 | 97 | 1003.2 |
| 20260901213529 | 53 | 293 | 0.0 | 2.0 | 0.00 | 0.16 | 0.16 | 97 | 1003.2 |